Carlyle Lake Weather Center

Moon Phase Calendar



Carlyle Lake Water Level
Online Cameras

 


      

Current Conditions in Carlyle
7/25/2021 3:07:07 AM

77°F
Feels Like 79
Clouds
Humidity
92%
Pressure
29.91"
Wind
5.9 mph (WSW)
Dew Point
75°F
UV Index
0/10 (Low)
Visibility
6 mi

Hourly Forecast

Date & Time Sun, Jul 25
3:00 AM
Sun, Jul 25
4:00 AM
Sun, Jul 25
5:00 AM
Sun, Jul 25
6:00 AM
Sun, Jul 25
7:00 AM
Sun, Jul 25
8:00 AM
Sun, Jul 25
9:00 AM
Sun, Jul 25
10:00 AM
Sun, Jul 25
11:00 AM
Sun, Jul 25
12:00 PM
Sun, Jul 25
1:00 PM
Sun, Jul 25
2:00 PM
Sun, Jul 25
3:00 PM
Sun, Jul 25
4:00 PM
Sun, Jul 25
5:00 PM
Sun, Jul 25
6:00 PM
Sun, Jul 25
7:00 PM
Sun, Jul 25
8:00 PM
Sun, Jul 25
9:00 PM
Sun, Jul 25
10:00 PM
Sun, Jul 25
11:00 PM
Mon, Jul 26
12:00 AM
Mon, Jul 26
1:00 AM
Mon, Jul 26
2:00 AM
Mon, Jul 26
3:00 AM
Mon, Jul 26
4:00 AM
Mon, Jul 26
5:00 AM
Mon, Jul 26
6:00 AM
Mon, Jul 26
7:00 AM
Mon, Jul 26
8:00 AM
Mon, Jul 26
9:00 AM
Mon, Jul 26
10:00 AM
Mon, Jul 26
11:00 AM
Mon, Jul 26
12:00 PM
Mon, Jul 26
1:00 PM
Mon, Jul 26
2:00 PM
Mon, Jul 26
3:00 PM
Mon, Jul 26
4:00 PM
Mon, Jul 26
5:00 PM
Mon, Jul 26
6:00 PM
Mon, Jul 26
7:00 PM
Mon, Jul 26
8:00 PM
Mon, Jul 26
9:00 PM
Mon, Jul 26
10:00 PM
Mon, Jul 26
11:00 PM
Tue, Jul 27
12:00 AM
Tue, Jul 27
1:00 AM
Tue, Jul 27
2:00 AM
Condition
Clouds

Clouds

Clouds

Clouds

Clouds

Clouds

Clouds

Clouds

Rain

Rain

Clouds

Rain

Rain

Clouds

Clouds

Clouds

Clouds

Clouds

Clouds

Clouds

Clouds

Clouds

Clouds

Clouds

Clouds

Clouds

Clouds

Clouds

Clouds

Clouds

Clouds

Clouds

Clouds

Clouds

Clouds

Clouds

Clouds

Clouds

Clouds

Clouds

Clouds

Clear

Clear

Clear

Clear

Clouds

Clouds

Clouds
Temperature 77°F77°F76°F75°F75°F78°F80°F83°F84°F85°F87°F88°F88°F87°F86°F83°F80°F76°F73°F71°F69°F68°F67°F67°F66°F65°F64°F64°F66°F70°F74°F77°F79°F81°F83°F84°F84°F84°F84°F82°F79°F74°F72°F70°F69°F68°F68°F67°F
Feels Like 79°F78°F77°F77°F77°F79°F86°F91°F93°F95°F97°F98°F96°F95°F94°F90°F80°F77°F74°F72°F70°F69°F68°F67°F66°F65°F65°F64°F66°F70°F74°F78°F79°F84°F86°F86°F86°F87°F88°F86°F79°F75°F72°F71°F70°F69°F69°F68°F
Cloudiness 45%46%50%58%65%100%96%97%98%98%92%79%90%87%83%85%87%100%88%63%58%47%54%29%20%16%22%36%47%78%74%65%73%78%80%56%74%70%59%52%48%8%6%5%4%24%36%79%
Visibility 6 mi6 mi6 mi6 mi6 mi6 mi6 mi6 mi6 mi6 mi6 mi6 mi6 mi6 mi6 mi6 mi6 mi6 mi6 mi6 mi6 mi6 mi6 mi6 mi6 mi6 mi6 mi6 mi6 mi6 mi6 mi6 mi6 mi6 mi6 mi6 mi6 mi6 mi6 mi6 mi6 mi6 mi6 mi6 mi6 mi6 mi6 mi6 mi
Precipitation 13%5%5%0%0%0%0%22%68%90%90%56%56%52%52%52%52%5%4%4%4%4%3%0%0%0%0%0%0%0%0%0%0%0%0%0%0%0%0%0%0%0%0%0%0%0%0%0%
Humidity 92%93%93%94%94%90%84%80%79%76%69%66%64%66%70%72%80%83%87%87%89%90%91%92%91%91%92%92%90%85%77%72%68%63%58%55%54%56%63%68%77%81%84%86%88%88%88%90%
Dew Point 75°F74°F74°F73°F74°F74°F75°F76°F76°F77°F76°F75°F74°F74°F75°F73°F73°F71°F69°F67°F65°F65°F65°F64°F63°F62°F62°F61°F63°F65°F66°F67°F68°F68°F67°F66°F66°F67°F70°F70°F71°F68°F66°F66°F65°F64°F64°F64°F
Pressure 29.91"29.91"29.91"29.91"29.94"29.94"29.94"29.94"29.94"29.94"29.94"29.94"29.94"29.94"29.91"29.91"29.91"29.94"29.94"29.94"29.97"29.97"30"29.97"29.97"29.97"29.97"30"30"30.03"30.03"30.03"30.03"30.03"30"30"30"30"29.97"29.97"29.97"29.97"29.97"29.97"30"30"30"30"
Wind Speed 5.9 mph6 mph5.8 mph5.9 mph5 mph5.1 mph5.3 mph5 mph5.7 mph7.9 mph8.6 mph8.3 mph8.6 mph9.4 mph9.2 mph8.9 mph8.2 mph7.6 mph7.6 mph7.9 mph6.1 mph7.2 mph5.5 mph6.4 mph6.1 mph5.4 mph5.8 mph5.9 mph6.1 mph6.5 mph6.8 mph6.1 mph6.2 mph7 mph8.2 mph8.2 mph8.5 mph8.4 mph7.7 mph7.5 mph5.9 mph5.2 mph5.2 mph6.1 mph5.4 mph4.4 mph4.6 mph5 mph
Wind
Direction
256°
WSW
266°
W
277°
W
274°
W
272°
W
294°
WNW
314°
NW
328°
NNW
326°
NW
344°
NNW

N
17°
NNE
22°
NNE
17°
NNE
17°
NNE
21°
NNE
26°
NNE
18°
NNE
42°
NE
47°
NE
58°
ENE
46°
NE
54°
NE
39°
NE
55°
NE
48°
NE
52°
NE
47°
NE
52°
NE
48°
NE
56°
NE
65°
ENE
60°
ENE
47°
NE
49°
NE
59°
ENE
66°
ENE
69°
ENE
72°
ENE
74°
ENE
78°
ENE
85°
E
88°
E
93°
E
93°
E
93°
E
80°
E
89°
E

Daily Forecast

Date High Low Precip. Humidity
Today
Jul 25

Rain
88 °F
69 °F
90%
69%
Monday
Jul 26

Clouds
84 °F
64 °F
4%
58%
Tuesday
Jul 27

Clear
85 °F
66 °F
0%
60%
Wednesday
Jul 28

Clear
88 °F
67 °F
0%
58%
Thursday
Jul 29

Clouds
91 °F
71 °F
0%
62%
Friday
Jul 30

Rain
82 °F
68 °F
47%
66%
Saturday
Jul 31

Rain
81 °F
67 °F
100%
83%
Sunday
Aug 1

Rain
85 °F
72 °F
100%
77%
Monday
Aug 2

Rain
93 °F
73 °F
92%
67%
Tuesday
Aug 3

Clear
96 °F
77 °F
0%
62%
Wednesday
Aug 4

Rain
92 °F
75 °F
85%
58%
Thursday
Aug 5

Rain
75 °F
62 °F
89%
76%
Friday
Aug 6

Clear
84 °F
64 °F
0%
64%
Saturday
Aug 7

Clouds
82 °F
68 °F
0%
61%
Sunday
Aug 8

Rain
83 °F
61 °F
94%
63%
Monday
Aug 9

Rain
87 °F
70 °F
97%
71%

Temperature 8-14 Day Outlook



Precipitation 8-14 Day Outlook




Quick Links
Carlyle Lake News
Carlyle Lake Photos
Carlyle Lake Videos




About Us
Contact Us
Site Map
Search Site
Advertise With Us
   
Carlyle.USLakes.info
THE CARLYLE LAKE WEBSITE

Copyright 2021, Lakes Online
Privacy    |    Legal